Location: Newark
(46.2358°N, 112.1211°W)
Time: 13:58:50
(UTC+00:00)

CUBEBUG 2 - Visible Passes

Search period start: 10 July 2020 00:00
Search period end: 20 July 2020 00:00
Orbit: 587 x 697 km, 97.6° (Epoch: 09 July)

Date Brightness Start Highest point End Pass type
(mag) Time Alt. Az. Time Alt. Az. Time Alt. Az.
11 Jul ? 10:40:35 10° ENE 10:41:20 10° E 10:42:04 10° E visible
12 Jul ? 11:02:29 10° NE 11:05:41 18° E 11:08:48 10° SE visible
15 Jul ? 10:40:26 10° E 10:40:52 10° E 10:41:18 10° E visible
16 Jul ? 11:02:06 10° NE 11:05:13 18° E 11:08:16 10° SE visible
